EXS42AG EGBB-EGPH

Flight info

Callsign EXS42AG
Flight time 0h 45m
Altitude 26000
Route LUVUM DCT TNT N57 POL UN601 RIBEL DCT INPIP
Aircraft B738/M-SDE2E3FGHIRWXY/LB1

Departure

Time 2026-04-21 17:37
Airport Birmingham Airport (EGBB)

Arrival

Time 2026-04-21 18:22
Airport Edinburgh Airport (EGPH)
Time Latitude Longitude Altitude Speed Heading
2026-04-21 16:44 52.44933 -1.73294 320 ft 0 kts 146°
2026-04-21 16:59 52.44934 -1.73294 322 ft 0 kts 145°
2026-04-21 17:22 52.44945 -1.73307 320 ft 3 kts 146°
2026-04-21 17:22 52.44967 -1.73323 319 ft 4 kts 191°
2026-04-21 17:22 52.44986 -1.73302 319 ft 4 kts 234°
2026-04-21 17:23 52.44992 -1.73287 321 ft 1 kts 235°
2026-04-21 17:23 52.44993 -1.73287 321 ft 0 kts 235°
2026-04-21 17:26 52.44992 -1.73289 323 ft 1 kts 235°
2026-04-21 17:26 52.44989 -1.73297 323 ft 1 kts 235°
2026-04-21 17:26 52.44982 -1.73312 320 ft 2 kts 234°
2026-04-21 17:26 52.44972 -1.73335 321 ft 3 kts 234°
2026-04-21 17:27 52.44960 -1.73363 322 ft 3 kts 234°
2026-04-21 17:27 52.44943 -1.73394 323 ft 4 kts 222°
2026-04-21 17:27 52.44926 -1.73428 323 ft 4 kts 240°
2026-04-21 17:27 52.44914 -1.73471 321 ft 5 kts 244°
2026-04-21 17:28 52.44901 -1.73521 320 ft 5 kts 254°
2026-04-21 17:28 52.44891 -1.73574 321 ft 5 kts 246°
2026-04-21 17:28 52.44870 -1.73623 323 ft 6 kts 233°
2026-04-21 17:28 52.44863 -1.73683 323 ft 6 kts 291°
2026-04-21 17:29 52.44893 -1.73729 322 ft 6 kts 325°
2026-04-21 17:29 52.44929 -1.73769 322 ft 6 kts 327°
2026-04-21 17:29 52.44967 -1.73808 321 ft 6 kts 328°
2026-04-21 17:29 52.45003 -1.73850 322 ft 6 kts 324°
2026-04-21 17:30 52.45039 -1.73891 321 ft 6 kts 326°
2026-04-21 17:30 52.45075 -1.73931 322 ft 6 kts 326°
2026-04-21 17:30 52.45110 -1.73968 320 ft 6 kts 327°
2026-04-21 17:30 52.45145 -1.74006 321 ft 6 kts 327°
2026-04-21 17:31 52.45179 -1.74045 322 ft 6 kts 326°
2026-04-21 17:31 52.45215 -1.74084 321 ft 6 kts 327°
2026-04-21 17:31 52.45249 -1.74123 322 ft 6 kts 325°
2026-04-21 17:31 52.45284 -1.74161 322 ft 6 kts 326°
2026-04-21 17:32 52.45306 -1.74185 322 ft 6 kts 327°
2026-04-21 17:32 52.45352 -1.74234 322 ft 6 kts 324°
2026-04-21 17:32 52.45383 -1.74274 322 ft 6 kts 316°
2026-04-21 17:32 52.45403 -1.74331 322 ft 6 kts 295°
2026-04-21 17:33 52.45437 -1.74449 322 ft 10 kts 297°
2026-04-21 17:33 52.45469 -1.74550 322 ft 10 kts 299°
2026-04-21 17:33 52.45520 -1.74624 322 ft 10 kts 327°
2026-04-21 17:33 52.45580 -1.74689 319 ft 12 kts 327°
2026-04-21 17:34 52.45658 -1.74775 315 ft 15 kts 324°
2026-04-21 17:34 52.45757 -1.74885 309 ft 18 kts 327°
2026-04-21 17:34 52.45869 -1.75006 307 ft 19 kts 322°
2026-04-21 17:34 52.45976 -1.75130 305 ft 19 kts 327°
2026-04-21 17:35 52.46084 -1.75247 304 ft 18 kts 325°
2026-04-21 17:35 52.46187 -1.75361 302 ft 18 kts 327°
2026-04-21 17:35 52.46221 -1.75440 302 ft 8 kts 260°
2026-04-21 17:35 52.46193 -1.75520 307 ft 8 kts 237°
2026-04-21 17:36 52.46158 -1.75608 309 ft 12 kts 232°
2026-04-21 17:36 52.46109 -1.75608 309 ft 9 kts 142°
2026-04-21 17:36 52.45894 -1.75362 316 ft 79 kts 144°
2026-04-21 17:36 52.45224 -1.74616 331 ft 153 kts 143°
2026-04-21 17:37 52.44317 -1.73594 1268 ft 151 kts 136°
2026-04-21 17:37 52.43460 -1.72605 2320 ft 157 kts 136°
2026-04-21 17:37 52.42839 -1.71865 2623 ft 173 kts 135°
2026-04-21 17:37 52.41436 -1.70167 3288 ft 196 kts 137°
2026-04-21 17:38 52.40552 -1.68671 4138 ft 181 kts 112°
2026-04-21 17:38 52.40367 -1.66630 4622 ft 190 kts 81°
2026-04-21 17:38 52.40756 -1.64489 5140 ft 201 kts 72°
2026-04-21 17:38 52.41260 -1.62358 5863 ft 199 kts 65°
2026-04-21 17:39 52.42233 -1.60703 6361 ft 219 kts 34°
2026-04-21 17:39 52.43805 -1.59852 6501 ft 259 kts 16°
2026-04-21 17:39 52.45660 -1.59484 7117 ft 274 kts
2026-04-21 17:39 52.47581 -1.59654 7984 ft 278 kts
2026-04-21 17:40 52.49527 -1.59899 8849 ft 282 kts
2026-04-21 17:40 52.51500 -1.60273 9698 ft 291 kts 348°
2026-04-21 17:40 52.53415 -1.61546 10563 ft 299 kts 338°
2026-04-21 17:40 52.55323 -1.62995 11284 ft 309 kts 338°
2026-04-21 17:41 52.57361 -1.64518 11566 ft 334 kts 339°
2026-04-21 17:41 52.59497 -1.66075 12281 ft 341 kts 339°
2026-04-21 17:41 52.61681 -1.67656 13161 ft 345 kts 339°
2026-04-21 17:41 52.63895 -1.69251 14003 ft 349 kts 338°
2026-04-21 17:42 52.66137 -1.70874 14828 ft 353 kts 339°
2026-04-21 17:42 52.68385 -1.72504 15635 ft 359 kts 339°
2026-04-21 17:42 52.70691 -1.74061 16635 ft 356 kts 347°
2026-04-21 17:42 52.73137 -1.74430 17539 ft 354 kts
2026-04-21 17:43 52.75591 -1.73955 18466 ft 357 kts
2026-04-21 17:43 52.78073 -1.73355 19223 ft 361 kts
2026-04-21 17:43 52.80567 -1.72733 19994 ft 363 kts
2026-04-21 17:43 52.83067 -1.72121 20860 ft 362 kts
2026-04-21 17:44 52.85542 -1.71533 21612 ft 365 kts
2026-04-21 17:44 52.88075 -1.70945 22335 ft 369 kts
2026-04-21 17:44 52.90621 -1.70360 23147 ft 369 kts
2026-04-21 17:44 52.93191 -1.69779 23752 ft 375 kts
2026-04-21 17:45 52.95772 -1.69193 24462 ft 374 kts
2026-04-21 17:45 52.98371 -1.68603 24986 ft 379 kts
2026-04-21 17:45 53.01009 -1.68005 25462 ft 385 kts
2026-04-21 17:45 53.03685 -1.67613 25936 ft 386 kts 356°
2026-04-21 17:46 53.06308 -1.67963 26336 ft 379 kts 348°
2026-04-21 17:46 53.08863 -1.69009 26369 ft 377 kts 338°
2026-04-21 17:46 53.11315 -1.70557 26369 ft 377 kts 336°
2026-04-21 17:46 53.13761 -1.72136 26370 ft 376 kts 337°
2026-04-21 17:47 53.16211 -1.73689 26380 ft 377 kts 337°
2026-04-21 17:47 53.18671 -1.75228 26385 ft 378 kts 337°
2026-04-21 17:47 53.21138 -1.76763 26382 ft 378 kts 337°
2026-04-21 17:47 53.23612 -1.78301 26379 ft 379 kts 337°
2026-04-21 17:48 53.25250 -1.79319 26391 ft 379 kts 338°
2026-04-21 17:48 53.28543 -1.81371 26394 ft 379 kts 338°
2026-04-21 17:48 53.31018 -1.82915 26392 ft 378 kts 337°
2026-04-21 17:48 53.33458 -1.84440 26372 ft 378 kts 338°
2026-04-21 17:49 53.35916 -1.85979 26380 ft 376 kts 337°
2026-04-21 17:49 53.38372 -1.87519 26380 ft 376 kts 338°
2026-04-21 17:49 53.40825 -1.89058 26393 ft 376 kts 337°
2026-04-21 17:49 53.42449 -1.90079 26377 ft 376 kts 337°
2026-04-21 17:50 53.44910 -1.91627 26402 ft 377 kts 338°
2026-04-21 17:50 53.47370 -1.93177 26400 ft 378 kts 338°
2026-04-21 17:50 53.49835 -1.94730 26387 ft 378 kts 337°
2026-04-21 17:50 53.52305 -1.96289 26404 ft 378 kts 338°
2026-04-21 17:51 53.54744 -1.97827 26385 ft 378 kts 337°
2026-04-21 17:51 53.57210 -1.99382 26396 ft 379 kts 337°
2026-04-21 17:51 53.59675 -2.00944 26387 ft 378 kts 337°
2026-04-21 17:51 53.62140 -2.02508 26400 ft 378 kts 337°
2026-04-21 17:52 53.64611 -2.04074 26391 ft 377 kts 338°
2026-04-21 17:52 53.67071 -2.05634 26395 ft 377 kts 338°
2026-04-21 17:52 53.69500 -2.07178 26403 ft 377 kts 337°
2026-04-21 17:52 53.71954 -2.08739 26385 ft 377 kts 337°
2026-04-21 17:53 53.74412 -2.10305 26398 ft 377 kts 336°
2026-04-21 17:53 53.76855 -2.11939 26394 ft 378 kts 335°
2026-04-21 17:53 53.79295 -2.13637 26403 ft 379 kts 335°
2026-04-21 17:53 53.81735 -2.15339 26404 ft 379 kts 335°
2026-04-21 17:54 53.84182 -2.17035 26403 ft 379 kts 335°
2026-04-21 17:54 53.86630 -2.18728 26392 ft 379 kts 336°
2026-04-21 17:54 53.89049 -2.20388 26407 ft 379 kts 336°
2026-04-21 17:54 53.91503 -2.22068 26411 ft 378 kts 335°
2026-04-21 17:55 53.93943 -2.23736 26392 ft 378 kts 335°
2026-04-21 17:55 53.96385 -2.25410 26407 ft 378 kts 336°
2026-04-21 17:55 53.98829 -2.27088 26411 ft 378 kts 335°
2026-04-21 17:55 54.01244 -2.28748 26406 ft 378 kts 335°
2026-04-21 17:56 54.03719 -2.30457 26422 ft 388 kts 336°
2026-04-21 17:56 54.06272 -2.32225 26421 ft 401 kts 336°
2026-04-21 17:56 54.08904 -2.34046 26424 ft 413 kts 336°
2026-04-21 17:56 54.11570 -2.35889 26420 ft 423 kts 336°
2026-04-21 17:57 54.14328 -2.37797 26420 ft 431 kts 336°
2026-04-21 17:57 54.17116 -2.39726 26404 ft 430 kts 336°
2026-04-21 17:57 54.19886 -2.41647 26403 ft 425 kts 335°
2026-04-21 17:57 54.22614 -2.43542 26414 ft 421 kts 336°
2026-04-21 17:58 54.25337 -2.45441 26415 ft 425 kts 336°
2026-04-21 17:58 54.28100 -2.47370 26428 ft 432 kts 336°
2026-04-21 17:58 54.30865 -2.49303 26425 ft 434 kts 336°
2026-04-21 17:58 54.33658 -2.51255 26426 ft 430 kts 336°
2026-04-21 17:59 54.36417 -2.53187 26426 ft 428 kts 336°
2026-04-21 17:59 54.39185 -2.55131 26424 ft 430 kts 336°
2026-04-21 17:59 54.41968 -2.57088 26436 ft 432 kts 336°
2026-04-21 17:59 54.44759 -2.59051 26440 ft 432 kts 336°
2026-04-21 18:00 54.47508 -2.60988 26427 ft 431 kts 336°
2026-04-21 18:00 54.50311 -2.62968 26420 ft 436 kts 337°
2026-04-21 18:00 54.53109 -2.64948 26447 ft 440 kts 337°
2026-04-21 18:00 54.55950 -2.66960 26445 ft 443 kts 336°
2026-04-21 18:01 54.58796 -2.68977 26429 ft 439 kts 336°
2026-04-21 18:01 54.61603 -2.70966 26417 ft 433 kts 335°
2026-04-21 18:01 54.64368 -2.72933 26433 ft 427 kts 336°
2026-04-21 18:01 54.67113 -2.74890 26449 ft 425 kts 336°
2026-04-21 18:02 54.69854 -2.76846 26449 ft 427 kts 336°
2026-04-21 18:02 54.72612 -2.78817 26459 ft 431 kts 336°
2026-04-21 18:02 54.75385 -2.80802 26454 ft 439 kts 337°
2026-04-21 18:02 54.78229 -2.82840 26445 ft 442 kts 337°
2026-04-21 18:03 54.81052 -2.84864 26438 ft 444 kts 337°
2026-04-21 18:03 54.83898 -2.86907 26443 ft 438 kts 336°
2026-04-21 18:03 54.86712 -2.88932 26446 ft 437 kts 336°
2026-04-21 18:03 54.89534 -2.90968 25999 ft 444 kts 337°
2026-04-21 18:04 54.92379 -2.93024 25388 ft 441 kts 337°
2026-04-21 18:04 54.95206 -2.95069 24779 ft 438 kts 338°
2026-04-21 18:04 54.98023 -2.97112 24173 ft 439 kts 339°
2026-04-21 18:04 55.00821 -2.99141 23499 ft 441 kts 338°
2026-04-21 18:05 55.03644 -3.01192 22843 ft 436 kts 339°
2026-04-21 18:05 55.06424 -3.03218 22242 ft 429 kts 338°
2026-04-21 18:05 55.09160 -3.05214 21645 ft 425 kts 339°
2026-04-21 18:05 55.11851 -3.07348 21027 ft 425 kts 333°
2026-04-21 18:06 55.14397 -3.09923 20434 ft 420 kts 330°
2026-04-21 18:06 55.16885 -3.12574 19803 ft 415 kts 330°
2026-04-21 18:06 55.19329 -3.15247 19193 ft 412 kts 330°
2026-04-21 18:06 55.21717 -3.17892 18570 ft 409 kts 329°
2026-04-21 18:07 55.24114 -3.20572 17884 ft 407 kts 330°
2026-04-21 18:07 55.26487 -3.23253 17223 ft 403 kts 329°
2026-04-21 18:07 55.28840 -3.25913 16559 ft 399 kts 329°
2026-04-21 18:07 55.31151 -3.28539 15935 ft 388 kts 329°
2026-04-21 18:08 55.33376 -3.31088 15350 ft 374 kts 329°
2026-04-21 18:08 55.35489 -3.33526 14789 ft 362 kts 330°
2026-04-21 18:08 55.37562 -3.35913 14286 ft 350 kts 329°
2026-04-21 18:08 55.39571 -3.38235 13742 ft 340 kts 329°
2026-04-21 18:09 55.41527 -3.40490 13186 ft 330 kts 329°
2026-04-21 18:09 55.43403 -3.42671 12663 ft 322 kts 329°
2026-04-21 18:09 55.45250 -3.44833 12160 ft 315 kts 329°
2026-04-21 18:09 55.47063 -3.46971 11653 ft 310 kts 329°
2026-04-21 18:10 55.48847 -3.49082 11141 ft 306 kts 329°
2026-04-21 18:10 55.50607 -3.51162 10672 ft 301 kts 329°
2026-04-21 18:10 55.52317 -3.53182 10176 ft 288 kts 329°
2026-04-21 18:10 55.53931 -3.55099 9666 ft 277 kts 329°
2026-04-21 18:11 55.55490 -3.56973 9158 ft 264 kts 329°
2026-04-21 18:11 55.56989 -3.58787 8729 ft 258 kts 329°
2026-04-21 18:11 55.58435 -3.60553 8417 ft 247 kts 329°
2026-04-21 18:11 55.59825 -3.62259 8135 ft 238 kts 329°
2026-04-21 18:12 55.61178 -3.63887 7836 ft 230 kts 335°
2026-04-21 18:12 55.62621 -3.64767 7571 ft 217 kts 350°
2026-04-21 18:12 55.64059 -3.65468 7283 ft 212 kts 349°
2026-04-21 18:12 55.65475 -3.66189 6923 ft 212 kts 349°
2026-04-21 18:13 55.66903 -3.66936 6480 ft 214 kts 349°
2026-04-21 18:13 55.68321 -3.67666 6022 ft 216 kts 349°
2026-04-21 18:13 55.69778 -3.68419 5535 ft 218 kts 349°
2026-04-21 18:13 55.71238 -3.69182 5093 ft 219 kts 349°
2026-04-21 18:14 55.74136 -3.70588 4267 ft 212 kts 358°
2026-04-21 18:14 55.75583 -3.70892 4013 ft 203 kts 359°
2026-04-21 18:14 55.76927 -3.71204 3973 ft 186 kts 359°
2026-04-21 18:15 55.78164 -3.71514 3971 ft 175 kts 359°
2026-04-21 18:15 55.79359 -3.71830 3980 ft 173 kts 359°
2026-04-21 18:15 55.80557 -3.72108 3989 ft 173 kts
2026-04-21 18:15 55.81726 -3.71909 3999 ft 171 kts 14°
2026-04-21 18:16 55.82905 -3.71559 3981 ft 169 kts 27°
2026-04-21 18:16 55.83711 -3.70244 4006 ft 155 kts 61°
2026-04-21 18:16 55.84331 -3.68653 4005 ft 156 kts 59°
2026-04-21 18:16 55.84936 -3.67026 3887 ft 158 kts 62°
2026-04-21 18:17 55.85507 -3.65395 3690 ft 155 kts 62°
2026-04-21 18:17 55.86062 -3.63769 3482 ft 151 kts 63°
2026-04-21 18:17 55.86599 -3.62178 3275 ft 149 kts 63°
2026-04-21 18:17 55.87132 -3.60590 3069 ft 149 kts 63°
2026-04-21 18:18 55.87645 -3.59066 2886 ft 140 kts 63°
2026-04-21 18:18 55.88141 -3.57590 2663 ft 137 kts 63°
2026-04-21 18:18 55.88625 -3.56150 2485 ft 137 kts 62°
2026-04-21 18:18 55.89110 -3.54707 2287 ft 134 kts 62°
2026-04-21 18:19 55.89586 -3.53293 2108 ft 133 kts 62°
2026-04-21 18:19 55.90069 -3.51857 1940 ft 135 kts 62°
2026-04-21 18:19 55.90531 -3.50486 1739 ft 127 kts 62°
2026-04-21 18:19 55.90984 -3.49143 1555 ft 125 kts 63°
2026-04-21 18:20 55.91425 -3.47834 1388 ft 122 kts 62°
2026-04-21 18:20 55.91856 -3.46530 1202 ft 123 kts 60°
2026-04-21 18:20 55.92310 -3.45218 1048 ft 124 kts 60°
2026-04-21 18:20 55.92757 -3.43891 838 ft 125 kts 62°
2026-04-21 18:21 55.93199 -3.42560 661 ft 123 kts 60°
2026-04-21 18:21 55.93641 -3.41273 491 ft 122 kts 60°
2026-04-21 18:21 55.94090 -3.39936 307 ft 128 kts 60°
2026-04-21 18:21 55.94540 -3.38606 155 ft 125 kts 60°
2026-04-21 18:22 55.94967 -3.37346 111 ft 106 kts 58°
2026-04-21 18:22 55.95270 -3.36453 110 ft 62 kts 59°
2026-04-21 18:22 55.95432 -3.35973 110 ft 38 kts 59°
2026-04-21 18:22 55.95542 -3.35644 112 ft 21 kts 60°
2026-04-21 18:23 55.95530 -3.35468 114 ft 16 kts 154°
2026-04-21 18:23 55.95457 -3.35402 112 ft 12 kts 172°
2026-04-21 18:23 55.95401 -3.35492 112 ft 11 kts 238°
2026-04-21 18:23 55.95360 -3.35611 114 ft 11 kts 239°
2026-04-21 18:24 55.95322 -3.35726 114 ft 11 kts 239°
2026-04-21 18:24 55.95284 -3.35840 115 ft 12 kts 238°
2026-04-21 18:24 55.95238 -3.35975 115 ft 13 kts 238°
2026-04-21 18:24 55.95188 -3.36121 114 ft 14 kts 238°
2026-04-21 18:25 55.95140 -3.36261 114 ft 13 kts 238°
2026-04-21 18:25 55.95097 -3.36389 113 ft 10 kts 227°
2026-04-21 18:25 55.95032 -3.36386 114 ft 10 kts 189°
2026-04-21 18:25 55.94987 -3.36477 111 ft 10 kts 240°
2026-04-21 18:26 55.94950 -3.36591 113 ft 11 kts 236°
2026-04-21 18:26 55.94909 -3.36703 115 ft 7 kts 238°
2026-04-21 18:26 55.94881 -3.36770 115 ft 7 kts 212°
2026-04-21 18:26 55.94832 -3.36779 115 ft 7 kts 178°
2026-04-21 18:27 55.94782 -3.36774 115 ft 7 kts 170°
2026-04-21 18:27 55.94738 -3.36738 115 ft 7 kts 169°
2026-04-21 18:27 55.94691 -3.36735 115 ft 6 kts 178°
2026-04-21 18:27 55.94658 -3.36719 112 ft 5 kts 116°
2026-04-21 18:28 55.94656 -3.36657 115 ft 5 kts 89°
2026-04-21 18:28 55.94657 -3.36621 115 ft 0 kts 89°